Riverton, WY

5:23 AM MDT on May 29, 2017 (GMT -0600)
Riverton Regional

Weather History for KRIW - October, 2012

Change the Weather History Date:

Friday, October 26, 2012

  Actual Average Record
Temperature  
Mean Temperature 30 °F 41 °F  
Max Temperature 39 °F 53 °F 69 °F (1999)
Min Temperature 21 °F 29 °F 12 °F (1997)
Degree Days  
Heating Degree Days 35 24  
Month to date heating degree days 517 489  
Since 1 July heating degree days 621 753  
Cooling Degree Days 0 0  
Month to date cooling degree days 1 0  
Year to date cooling degree days 765 494  
Moisture  
Dew Point 20 °F    
Average Humidity 68    
Maximum Humidity 92    
Minimum Humidity 44    
Precipitation  
Precipitation T in 0.01 in 0.02 in (2011)
Month to date precipitation 0.34 0.84  
Year to date precipitation 2.55 8.56  
Snow  
Snow T in - - ()
Month to date snowfall 0.8  
Since 1 July snowfall 0.8  
Since 1 September snowfall 0.8  
Snow Depth T in    
Sea Level Pressure  
Sea Level Pressure 30.35 in    
Wind  
Wind Speed 4 mph (South)    
Max Wind Speed 9 mph    
Max Gust Speed -    
Visibility 7 miles    
Events Fog , Snow    
T = Trace of Precipitation, MM = Missing Value Source: NWS Daily Summary

Daily Weather History Graph

Daily Weather History Graph

Search for Another Location

Airport or City:

Trip Planner

Search our weather history database for the weather conditions in past years. The results will help you decide how hot, cold, wet, or windy it might be!

Date:

Astronomy

Oct. 26, 2012 Rise Set
Actual Time 7:41 AM MDT 6:13 PM MDT
Civil Twilight 7:12 AM MDT 6:42 PM MDT
Nautical Twilight 6:39 AM MDT 7:15 PM MDT
Astronomical Twilight 6:06 AM MDT 7:48 PM MDT
Moon 4:33 PM MDT (10/26) 4:37 AM MDT (10/26)
Length of Visible Light 11h 30m
Length of Day
10h 31m
Waxing Gibbous, 91% of the Moon is Illuminated
Oct 26
Waxing Gibbous
Oct 29
Full
Nov 6
Last Quarter
Nov 13
New
Nov 20
First Quarter

Hourly Weather History & Observations

Time (MDT) Temp. Windchill Dew Point Humidity Pressure Visibility Wind Dir Wind Speed Gust Speed Precip Events Conditions
12:05 AM 24.8 °F 20.5 °F 21.2 °F 86% 30.32 in 1.8 mi ENE 3.5 mph - N/A Snow Light Snow
12:15 AM 24.8 °F 20.5 °F 21.2 °F 86% 30.33 in 2.0 mi ESE 3.5 mph - 0.00 in Snow Light Snow
12:35 AM 24.8 °F - 21.2 °F 86% 30.33 in 5.0 mi Calm Calm - 0.00 in Snow Light Snow
12:53 AM 25.0 °F 20.7 °F 21.9 °F 88% 30.44 in 10.0 mi South 3.5 mph - 0.00 in   Overcast
1:10 AM 24.8 °F 17.9 °F 23.0 °F 93% 30.34 in 9.0 mi SSE 5.8 mph - N/A   Overcast
1:19 AM 24.8 °F 16.1 °F 23.0 °F 93% 30.34 in 7.0 mi SE 8.1 mph - N/A   Overcast
1:53 AM 24.1 °F 18.2 °F 21.9 °F 91% 30.44 in 10.0 mi ESE 4.6 mph - N/A   Overcast
2:48 AM 24.8 °F 19.1 °F 21.2 °F 86% 30.36 in 10.0 mi East 4.6 mph - N/A   Overcast
2:53 AM 24.1 °F 19.7 °F 21.0 °F 88% 30.44 in 10.0 mi East 3.5 mph - N/A   Overcast
3:26 AM 24.8 °F - 21.2 °F 86% 30.36 in 10.0 mi Calm Calm - N/A   Overcast
3:36 AM 24.8 °F - 21.2 °F 86% 30.36 in 10.0 mi Calm Calm - N/A   Overcast
3:43 AM 24.8 °F - 21.2 °F 86% 30.36 in 10.0 mi Calm Calm - N/A   Overcast
3:53 AM 24.1 °F - 21.0 °F 88% 30.45 in 10.0 mi Calm Calm - N/A   Overcast
4:26 AM 24.8 °F - 21.2 °F 86% 30.36 in 10.0 mi Calm Calm - N/A   Overcast
4:53 AM 24.1 °F 18.2 °F 21.0 °F 88% 30.45 in 10.0 mi South 4.6 mph - N/A   Overcast
5:00 AM 24.8 °F 20.5 °F 21.2 °F 86% 30.36 in 10.0 mi SSW 3.5 mph - N/A   Overcast
5:53 AM 21.0 °F - 19.0 °F 92% 30.47 in 10.0 mi Calm Calm - N/A   Overcast
6:23 AM 23.0 °F 18.4 °F 21.2 °F 93% 30.36 in 10.0 mi SSE 3.5 mph - N/A   Overcast
6:53 AM 21.9 °F 15.7 °F 19.9 °F 92% 30.47 in 10.0 mi South 4.6 mph - N/A   Overcast
7:15 AM 23.0 °F 15.8 °F 21.2 °F 93% 30.35 in 1.5 mi South 5.8 mph - N/A   Overcast
7:24 AM 21.2 °F 14.9 °F 21.2 °F 100% 30.35 in 0.5 mi SSW 4.6 mph - N/A Fog Light Freezing Fog
7:31 AM 21.2 °F 14.9 °F 19.4 °F 93% 30.35 in 0.2 mi SSW 4.6 mph - N/A Fog Light Freezing Fog
7:49 AM 21.2 °F 14.9 °F 19.4 °F 93% 30.36 in 0.2 mi SW 4.6 mph - N/A Fog Light Freezing Fog
7:53 AM 21.0 °F 14.6 °F 19.9 °F 96% 30.48 in 0.2 mi WSW 4.6 mph - N/A Fog Light Freezing Fog
8:53 AM 21.0 °F 13.4 °F 19.0 °F 92% 30.50 in 0.2 mi WSW 5.8 mph - N/A Fog Light Freezing Fog
9:32 AM 23.0 °F 15.8 °F 21.2 °F 93% 30.36 in 0.2 mi West 5.8 mph - N/A Fog Light Freezing Fog
9:53 AM 24.1 °F 19.7 °F 21.9 °F 91% 30.49 in 0.2 mi WNW 3.5 mph - N/A Fog Light Freezing Fog
10:26 AM 24.8 °F - 21.2 °F 86% 30.36 in 0.5 mi Calm Calm - 0.00 in Fog Light Freezing Fog
10:45 AM 24.8 °F - 21.2 °F 86% 30.35 in 2.0 mi Calm Calm - 0.00 in   Overcast
10:53 AM 25.0 °F - 23.0 °F 92% 30.48 in 5.0 mi Calm Calm - 0.00 in   Overcast
11:44 AM 28.4 °F 23.3 °F 23.0 °F 80% 30.33 in 10.0 mi East 4.6 mph - N/A   Partly Cloudy
11:53 AM 28.0 °F 22.8 °F 21.9 °F 78% 30.44 in 10.0 mi ESE 4.6 mph - N/A   Partly Cloudy
12:53 PM 28.9 °F 21.9 °F 23.0 °F 78% 30.40 in 10.0 mi South 6.9 mph - N/A   Clear
1:53 PM 34.0 °F 28.8 °F 21.9 °F 61% 30.34 in 10.0 mi Variable 5.8 mph - N/A   Clear
2:53 PM 37.9 °F 34.4 °F 18.0 °F 45% 30.28 in 10.0 mi West 4.6 mph - N/A   Clear
3:53 PM 36.0 °F 33.3 °F 16.0 °F 44% 30.27 in 10.0 mi SW 3.5 mph - N/A   Clear
4:53 PM 37.0 °F 32.4 °F 19.0 °F 48% 30.22 in 10.0 mi South 5.8 mph - N/A   Clear
5:53 PM 36.0 °F 31.1 °F 18.0 °F 48% 30.22 in 10.0 mi SSW 5.8 mph - N/A   Clear
6:53 PM 32.0 °F 25.6 °F 18.0 °F 56% 30.22 in 10.0 mi SSE 6.9 mph - N/A   Clear
7:53 PM 34.0 °F 31.0 °F 16.0 °F 48% 30.20 in 10.0 mi ESE 3.5 mph - N/A   Clear
8:53 PM 30.9 °F 27.5 °F 19.0 °F 61% 30.21 in 10.0 mi North 3.5 mph - N/A   Overcast
9:53 PM 30.9 °F 27.5 °F 19.9 °F 64% 30.19 in 10.0 mi WNW 3.5 mph - N/A   Overcast
10:53 PM 33.1 °F - 17.1 °F 52% 30.17 in 10.0 mi Calm Calm - N/A   Scattered Clouds
11:53 PM 27.0 °F 18.0 °F 16.0 °F 63% 30.19 in 10.0 mi West 9.2 mph - N/A   Clear